Location: Unspecified
(0.0000°N, 0.0000°E)
Time: 19:00:17
(UTC+00:00)

Vanguard 3 - Pass Details

Date: 27 November 2019
Orbit: 508 x 3263 km, 33.3° (Epoch: 08 December)

Event Time Altitude Azimuth Distance (km) Brightness Sun altitude
Rises 08:50:18 0° 249° (WSW) 4,114 10.5 41.9°
Reaches altitude 10° 08:52:41 10° 253° (WSW) 3,427 10.1 42.4°
Maximum altitude 09:01:41 56° 329° (NNW) 2,284 9.7 44.4°
Drops below altitude 10° 09:17:22 10° 44° (NE) 5,702 11.7 47.7°
Sets 09:22:40 0° 48° (NE) 6,985 12.0 48.8°
